Northolt, United Kingdom

7:13 PM GMT on February 22, 2017 (GMT +0000)
Northolt Air Base

Weather History for EGWU - February, 2012

Change the Weather History Date:

Thursday, February 2, 2012

  Actual Average Record
Temperature  
Mean Temperature 30 °F -  
Max Temperature 35 °F 46 °F 57 °F (2004)
Min Temperature 24 °F 36 °F 24 °F (1998)
Degree Days  
Heating Degree Days 36    
Moisture  
Dew Point 16 °F    
Average Humidity 56    
Maximum Humidity 80    
Minimum Humidity 22    
Precipitation  
Precipitation 0.00 in - - ()
Sea Level Pressure  
Sea Level Pressure 30.59 in    
Wind  
Wind Speed 9 mph ()    
Max Wind Speed 17 mph    
Max Gust Speed -    
Visibility 8.0 miles    
Events      
Averages and records for this station are not official NWS values.
T = Trace of Precipitation, MM = Missing Value Source: Averaged Metar Reports

Daily Weather History Graph

Daily Weather History Graph

Search for Another Location

Airport or City:

Trip Planner

Search our weather history database for the weather conditions in past years. The results will help you decide how hot, cold, wet, or windy it might be!

Date:

Astronomy

Feb. 02, 2012 Rise Set
Actual Time 7:39 AM GMT 4:51 PM GMT
Civil Twilight 7:03 AM GMT 5:27 PM GMT
Nautical Twilight 6:23 AM GMT 6:08 PM GMT
Astronomical Twilight 5:44 AM GMT 6:47 PM GMT
Moon 11:37 AM GMT (2/2) 3:21 AM GMT (2/2)
Length of Visible Light 10h 24m
Length of Day
9h 12m
Waxing Gibbous, 71% of the Moon is Illuminated
Feb 2
Waxing Gibbous
Feb 7
Full
Feb 14
Last Quarter
Feb 21
New
Mar 1
First Quarter

Hourly Weather History & Observations

Time (GMT) Temp. Windchill Dew Point Humidity Pressure Visibility Wind Dir Wind Speed Gust Speed Precip Events Conditions
12:50 AM 28.4 °F 19.1 °F 17.6 °F 64% 30.54 in 6.2 mi NE 10.4 mph - N/A   Unknown
1:50 AM 28.4 °F 19.1 °F 17.6 °F 64% 30.57 in 6.2 mi NE 10.4 mph - N/A   Unknown
2:50 AM 28 °F - 18 °F 53% 30.58 in 19 mi NE 10.4 mph - -  
2:50 AM 28.4 °F 19.1 °F 17.6 °F 64% 30.57 in 6.2 mi NE 10.4 mph - N/A   Unknown
3:50 AM 28.4 °F 18.5 °F 17.6 °F 64% 30.57 in 6.2 mi NE 11.5 mph - N/A   Unknown
4:50 AM 28.4 °F 19.7 °F 17.6 °F 64% 30.57 in 6.2 mi NE 9.2 mph - N/A   Unknown
5:50 AM 27 °F - 18 °F 59% 30.58 in 16 mi NE 8.1 mph - -  
5:50 AM 26.6 °F 18.2 °F 19.4 °F 74% 30.57 in - NE 8.1 mph - N/A   Clear
6:50 AM 24.8 °F 17.9 °F 17.6 °F 74% 30.57 in - NNE 5.8 mph - N/A   Clear
7:50 AM 24.8 °F 19.1 °F 19.4 °F 80% 30.57 in 6.2 mi NE 4.6 mph - N/A   Partly Cloudy
8:50 AM 29 °F - 20 °F 57% 30.61 in 17 mi NE 6.9 mph - -   Scattered Clouds
8:50 AM 28.4 °F 21.2 °F 19.4 °F 69% 30.60 in 6.2 mi NE 6.9 mph - N/A   Partly Cloudy
9:50 AM 32.0 °F 22.5 °F 17.6 °F 55% 30.60 in 6.2 mi ENE 12.7 mph - N/A   Partly Cloudy
10:50 AM 32.0 °F 20.8 °F 14.0 °F 48% 30.60 in 6.2 mi ENE 17.3 mph - N/A   Partly Cloudy
11:50 AM 34 °F - 14 °F 30% 30.60 in 28 mi ENE 16.1 mph - -   Scattered Clouds
11:50 AM 33.8 °F 23.5 °F 14.0 °F 44% 30.57 in 6.2 mi ENE 16.1 mph - N/A   Partly Cloudy
12:50 PM 35.6 °F 26.2 °F 14.0 °F 41% 30.57 in 6.2 mi ENE 15.0 mph - N/A   Partly Cloudy
1:50 PM 33.8 °F 23.5 °F 10.4 °F 38% 30.57 in 6.2 mi NE 16.1 mph - N/A   Partly Cloudy
2:50 PM 34 °F - 10 °F 22% 30.59 in 31 mi ENE 16.1 mph - -   Scattered Clouds
2:50 PM 33.8 °F 23.5 °F 10.4 °F 38% 30.57 in 6.2 mi ENE 16.1 mph - N/A   Partly Cloudy
3:50 PM 33.8 °F 24.8 °F 12.2 °F 41% 30.57 in 6.2 mi East 12.7 mph - N/A   Partly Cloudy
4:50 PM 32.0 °F 23.6 °F 12.2 °F 44% 30.57 in 6.2 mi ENE 10.4 mph - N/A   Partly Cloudy
5:50 PM 30 °F - 14 °F 37% 30.62 in 28 mi NE 9.2 mph - -   Scattered Clouds
5:50 PM 30.2 °F 21.9 °F 14.0 °F 51% 30.60 in 6.2 mi NE 9.2 mph - N/A   Partly Cloudy
6:50 PM 28.4 °F 20.4 °F 15.8 °F 59% 30.60 in 6.2 mi NE 8.1 mph - N/A   Partly Cloudy
7:50 PM 28.4 °F 19.1 °F 17.6 °F 64% 30.63 in 6.2 mi ENE 10.4 mph - N/A   Partly Cloudy
8:50 PM 28 °F - 17 °F 50% 30.65 in 22 mi NE 8.1 mph - -   Scattered Clouds
8:50 PM 28.4 °F 20.4 °F 17.6 °F 64% 30.63 in 6.2 mi NE 8.1 mph - N/A   Partly Cloudy
9:50 PM 26.6 °F 20.0 °F 17.6 °F 69% 30.63 in 6.2 mi NNE 5.8 mph - N/A   Partly Cloudy
10:50 PM 26.6 °F 20.0 °F 17.6 °F 69% 30.63 in 6.2 mi NNE 5.8 mph - N/A   Partly Cloudy
11:50 PM 26 °F - 18 °F 60% 30.66 in 19 mi NNE 6.9 mph - -  
11:50 PM 24.8 °F 16.9 °F 17.6 °F 74% 30.63 in 6.2 mi NNE 6.9 mph - N/A   Unknown